GW2556 Weather Reports


time (UTC)temp
C
wind
direction
speed
KPH
gust
KPH
rain 1hr
cm
rain 24hr
cm
rain mn
cm
humidity
%
barometer
mb
20260505140229 2 355 1.6 1.6 0.00 0.28 0.28 98 1014.3
20260505130153 2 320 1.6 3.2 0.00 0.25 0.25 98 1013.0
20260505124643 2 40 0.0 1.6 0.00 0.25 0.25 98 1013.1
20260505124139 2 58 1.6 1.6 0.13 0.25 0.25 98 1012.9
20260505123635 2 311 8.0 9.7 0.13 0.25 0.25 97 1012.8
20260505123133 2 117 0.0 1.6 0.00 0.23 0.23 98 1012.8
20260505122629 3 206 0.0 1.6 0.18 0.23 0.23 98 1012.4
20260505122126 3 297 3.2 3.2 0.18 0.23 0.23 97 1012.4
20260505121623 2 4 1.6 1.6 0.13 0.20 0.20 97 1012.5
20260505121120 3 308 1.6 3.2 0.30 0.20 0.20 97 1012.4
20260505120616 3 329 4.8 4.8 0.18 0.18 0.18 97 1012.4
20260505120112 3 17 3.2 3.2 0.13 0.15 0.15 97 1012.0
20260505115606 3 128 3.2 4.8 0.13 0.15 0.15 97 1012.2
20260505115104 3 60 1.6 1.6 0.18 0.13 0.13 97 1011.9
20260505114601 3 296 1.6 3.2 0.36 0.13 0.13 96 1011.9
20260505114057 3 321 1.6 1.6 0.48 0.10 0.10 96 1011.9
20260505113553 3 185 1.6 1.6 0.43 0.08 0.08 96 1012.2
20260505113050 3 295 3.2 3.2 0.13 0.03 0.03 95 1011.8
20260505112546 3 278 8.0 11.3 0.00 0.00 0.00 95 1011.8
20260505112044 4 33 1.6 1.6 0.00 0.00 0.00 95 1011.8
20260505111538 4 238 1.6 3.2 0.00 0.00 0.00 94 1011.9
20260505111035 4 77 0.0 0.0 0.00 0.00 0.00 95 1011.7
20260505110531 4 2 1.6 3.2 0.00 0.00 0.00 95 1011.5
20260505102004 5 205 1.6 1.6 0.00 0.00 0.00 97 1010.5
20260505101502 5 123 1.6 3.2 0.00 0.00 0.00 97 1010.3
20260505100958 5 282 3.2 3.2 0.00 0.00 0.00 97 1009.9
20260505100455 5 306 1.6 3.2 0.00 0.00 0.00 97 1010.2
20260505095951 5 141 1.6 1.6 0.00 0.00 0.00 97 1010.4
20260505095448 5 10 1.6 3.2 0.00 0.00 0.00 97 1010.3
20260505094944 5 1 3.2 3.2 0.00 0.00 0.00 97 1010.4
20260505094441 6 98 4.8 8.0 0.00 0.00 0.00 97 1010.2
20260505093937 6 134 3.2 3.2 0.00 0.00 0.00 97 1010.4
20260505093434 6 5 3.2 3.2 0.00 0.00 0.00 97 1010.5
20260505092931 6 127 6.4 9.7 0.00 0.00 0.00 97 1010.3
20260505092429 7 27 1.6 3.2 0.00 0.00 0.00 97 1010.0
20260505091926 8 23 0.0 0.0 0.00 0.00 0.00 98 1010.2
20260505091423 8 115 0.0 0.0 0.00 0.00 0.00 98 1010.3
20260505090921 8 95 0.0 0.0 0.00 0.00 0.00 98 1010.2
20260505090420 8 60 0.0 0.0 0.00 0.00 0.00 98 1009.9
20260505085916 8 357 0.0 0.0 0.00 0.00 0.00 98 1009.9
20260505085414 8 345 0.0 0.0 0.00 0.00 0.00 98 1010.0
20260505084912 8 83 0.0 0.0 0.00 0.00 0.00 98 1010.0
20260505084410 8 320 0.0 0.0 0.00 0.00 0.00 98 1010.0
20260505083908 7 341 0.0 0.0 0.00 0.00 0.00 98 1010.0
20260505083405 7 67 0.0 0.0 0.00 0.00 0.00 98 1009.9
20260505082901 7 67 0.0 0.0 0.00 0.00 0.00 97 1010.2
20260505082357 7 67 0.0 0.0 0.00 0.00 0.00 97 1009.9
20260505081854 7 67 0.0 0.0 0.00 0.00 0.00 97 1009.6
20260505081351 7 67 0.0 0.0 0.00 0.00 0.00 97 1010.2
20260505080848 7 67 0.0 0.0 0.00 0.00 0.00 97 1010.0
20260505080344 7 67 0.0 0.0 0.00 0.00 0.00 97 1010.0
20260505075839 7 67 0.0 0.0 0.00 0.00 0.00 97 1010.0
20260505075336 7 67 0.0 0.0 0.00 0.00 0.00 97 1009.8
20260505074834 7 67 0.0 0.0 0.00 0.00 0.00 97 1010.2
20260505074331 7 67 0.0 0.0 0.00 0.00 0.00 97 1010.2
20260505073828 8 67 0.0 0.0 0.00 0.00 0.00 97 1009.9
20260505073326 8 67 0.0 0.0 0.00 0.00 0.00 97 1010.3
20260505072822 8 68 0.0 0.0 0.00 0.00 0.00 97 1010.5
20260505072319 8 68 0.0 0.0 0.00 0.00 0.00 97 1010.5
20260505071815 8 68 0.0 0.0 0.00 0.00 0.00 97 1010.5
20260505071312 8 72 0.0 0.0 0.00 0.00 0.00 97 1010.6
20260505070810 8 73 0.0 0.0 0.00 0.00 0.00 97 1010.6
20260505070306 8 107 0.0 0.0 0.00 0.00 0.00 97 1010.6
20260505065801 8 108 0.0 0.0 0.00 0.00 0.00 97 1010.5
20260505065258 8 107 0.0 0.0 0.00 0.00 0.00 97 1010.6
20260505064755 8 107 0.0 0.0 0.00 0.00 0.00 97 1010.6
20260505064252 8 75 0.0 0.0 0.00 0.00 0.00 97 1010.7
20260505063750 8 75 0.0 0.0 0.00 0.00 0.00 97 1010.7
20260505063246 8 75 0.0 0.0 0.00 0.00 0.00 97 1010.6
20260505062743 8 76 0.0 0.0 0.00 0.00 0.00 97 1011.0
20260505062240 8 77 0.0 0.0 0.00 0.00 0.00 97 1010.7
20260505061737 8 77 0.0 0.0 0.00 0.00 0.00 97 1011.0
20260505061235 8 75 0.0 0.0 0.00 0.00 0.00 97 1010.7
20260505060732 8 91 0.0 0.0 0.00 0.00 0.00 97 1010.6
20260505060229 8 108 0.0 0.0 0.00 0.00 0.00 96 1010.7
20260505055724 8 108 0.0 0.0 0.00 0.33 0.33 96 1010.9
20260505055221 7 108 0.0 0.0 0.00 0.33 0.33 96 1010.9
20260505054718 7 108 0.0 0.0 0.00 0.33 0.33 96 1011.1
20260505054216 7 108 0.0 0.0 0.00 0.33 0.33 96 1011.1
20260505053714 7 108 0.0 0.0 0.00 0.33 0.33 96 1010.5
20260505053210 7 108 0.0 0.0 0.00 0.33 0.33 96 1010.6
20260505052708 8 108 0.0 0.0 0.00 0.33 0.33 96 1010.9
20260505052204 8 108 0.0 0.0 0.00 0.33 0.33 95 1010.7
20260505051701 8 108 0.0 0.0 0.00 0.33 0.33 95 1010.6
20260505051159 8 108 0.0 0.0 0.00 0.33 0.33 95 1011.1
20260505050651 8 109 0.0 0.0 0.00 0.33 0.33 95 1011.3
20260505050149 8 109 0.0 0.0 0.18 0.33 0.33 95 1011.2
20260505041619 8 87 0.0 0.0 0.13 0.25 0.25 92 1011.3
20260505041117 8 87 0.0 0.0 0.18 0.23 0.23 92 1011.6
20260505040613 8 104 0.0 0.0 0.30 0.23 0.23 92 1011.6
20260505040110 8 66 0.0 0.0 0.13 0.20 0.20 91 1011.3
20260505035607 8 88 0.0 0.0 0.18 0.18 0.18 91 1011.3
20260505035103 8 108 0.0 0.0 0.18 0.18 0.18 90 1011.2
20260505034600 8 285 0.0 1.6 0.13 0.15 0.15 89 1011.3
20260505034056 8 173 1.6 1.6 0.30 0.15 0.15 88 1011.2
20260505033553 9 128 1.6 3.2 0.36 0.13 0.13 88 1011.1
20260505033052 9 158 0.0 0.0 0.30 0.10 0.10 87 1011.3
20260505032550 10 81 0.0 0.0 0.48 0.10 0.10 85 1011.1
20260505032045 10 125 0.0 1.6 0.30 0.05 0.05 81 1011.1
20260505031542 11 163 1.6 3.2 0.00 0.00 0.00 77 1010.9
20260505031039 11 123 0.0 0.0 0.00 0.00 0.00 70 1010.7
20260505030537 11 106 1.6 1.6 0.00 0.00 0.00 68 1010.5
20260505030032 11 102 0.0 0.0 0.00 0.00 0.00 63 1010.2
20260505025528 11 101 0.0 0.0 0.00 0.00 0.00 62 1009.9
20260505025027 12 101 0.0 0.0 0.00 0.00 0.00 62 1010.0
20260505024524 12 101 0.0 0.0 0.00 0.00 0.00 62 1009.8
20260505024021 11 101 0.0 0.0 0.00 0.00 0.00 62 1009.7
20260505023518 11 101 0.0 0.0 0.00 0.00 0.00 64 1009.6
20260505023016 11 101 0.0 0.0 0.00 0.00 0.00 64 1009.6
20260505022513 11 101 0.0 0.0 0.00 0.00 0.00 64 1009.6
20260505022010 11 101 0.0 0.0 0.00 0.00 0.00 63 1009.5
20260505021507 11 101 0.0 0.0 0.00 0.00 0.00 62 1009.3
20260505021003 11 101 0.0 0.0 0.00 0.00 0.00 62 1009.3
20260505020458 11 101 0.0 0.0 0.00 0.00 0.00 62 1009.6
20260505015954 11 101 0.0 0.0 0.00 0.00 0.00 62 1009.5
20260505015452 11 101 0.0 0.0 0.00 0.00 0.00 62 1009.5
20260505014949 11 101 0.0 0.0 0.00 0.00 0.00 62 1009.6
20260505014446 11 102 0.0 0.0 0.00 0.00 0.00 62 1009.5
20260505013943 12 102 0.0 0.0 0.00 0.00 0.00 62 1009.1
20260505013440 12 102 0.0 0.0 0.00 0.00 0.00 62 1009.0
20260505012937 12 101 0.0 0.0 0.00 0.00 0.00 62 1009.1
20260505012435 12 101 0.0 0.0 0.00 0.00 0.00 61 1009.1
20260505011931 12 101 0.0 0.0 0.00 0.00 0.00 60 1009.2
20260505011428 12 102 0.0 0.0 0.00 0.00 0.00 60 1009.2
20260505010925 12 97 0.0 0.0 0.00 0.00 0.00 58 1009.2
20260505010421 12 49 0.0 1.6 0.00 0.00 0.00 59 1008.9
20260505005917 12 315 3.2 3.2 0.00 0.00 0.00 60 1009.1
20260505005414 12 238 1.6 1.6 0.00 0.00 0.00 62 1009.2
20260505004911 13 300 4.8 8.0 0.00 0.00 0.00 56 1009.3
20260505004408 14 10 0.0 1.6 0.00 0.00 0.00 47 1009.3
20260505003905 14 96 1.6 1.6 0.00 0.00 0.00 46 1009.3
20260505003401 15 310 3.2 8.0 0.00 0.00 0.00 45 1009.2
20260505002858 15 16 1.6 1.6 0.00 0.00 0.00 44 1008.9
20260505002354 15 108 0.0 1.6 0.00 0.00 0.00 42 1009.1
20260505001853 15 137 0.0 0.0 0.00 0.00 0.00 41 1008.9
20260505001350 15 177 0.0 1.6 0.00 0.00 0.00 39 1008.7
20260505000847 15 352 1.6 1.6 0.00 0.00 0.00 39 1008.7
20260505000345 15 91 0.0 0.0 0.00 0.00 0.00 39 1008.6
20260504235841 15 88 0.0 0.0 0.00 0.00 0.00 38 1008.3
20260504235338 16 260 1.6 1.6 0.00 0.00 0.00 38 1008.2
20260504234835 16 312 1.6 3.2 0.00 0.00 0.00 38 1007.9
20260504234332 16 108 0.0 0.0 0.00 0.00 0.00 39 1007.7
20260504233829 16 14 3.2 3.2 0.00 0.00 0.00 38 1007.6
20260504233325 16 285 4.8 8.0 0.00 0.00 0.00 37 1007.5
20260504232822 16 321 3.2 8.0 0.00 0.00 0.00 37 1007.6
20260504232319 16 227 6.4 9.7 0.00 0.00 0.00 35 1007.5
20260504231816 16 344 3.2 4.8 0.00 0.00 0.00 33 1007.5
20260504231312 16 308 1.6 1.6 0.00 0.00 0.00 34 1007.7
20260504230808 16 9 3.2 3.2 0.00 0.00 0.00 33 1007.7
20260504230306 17 311 4.8 8.0 0.00 0.00 0.00 34 1007.1
20260504225805 17 89 4.8 9.7 0.00 0.00 0.00 33 1006.9
20260504225301 17 149 3.2 8.0 0.00 0.00 0.00 33 1007.1
20260504224758 17 298 3.2 4.8 0.00 0.00 0.00 32 1006.7
20260504224255 17 39 6.4 11.3 0.00 0.00 0.00 31 1007.0
20260504223751 17 2 3.2 9.7 0.00 0.00 0.00 31 1007.0
20260504223247 17 311 4.8 4.8 0.00 0.00 0.00 30 1007.0
20260504222744 17 294 3.2 3.2 0.00 0.00 0.00 30 1007.0
20260504222241 17 312 12.9 20.9 0.00 0.00 0.00 30 1006.9
20260504221739 18 306 6.4 9.7 0.00 0.00 0.00 29 1006.9
20260504221236 18 280 8.0 11.3 0.00 0.00 0.00 29 1007.0
20260504220732 19 278 11.3 17.7 0.00 0.00 0.00 27 1006.7
20260504220229 20 164 3.2 3.2 0.00 0.00 0.00 23 1007.0
20260504215726 20 321 6.4 11.3 0.00 0.00 0.00 22 1006.5
20260504215217 20 105 1.6 1.6 0.00 0.00 0.00 22 1006.5
20260504214713 20 332 4.8 4.8 0.00 0.00 0.00 22 1006.4
20260504214210 20 312 3.2 3.2 0.00 0.00 0.00 23 1006.5
20260504213707 21 85 1.6 1.6 0.00 0.00 0.00 23 1006.5
20260504213203 21 91 3.2 3.2 0.00 0.00 0.00 22 1006.5
20260504212700 21 306 3.2 3.2 0.00 0.00 0.00 24 1006.6
20260504212157 21 285 4.8 4.8 0.00 0.00 0.00 23 1006.7
20260504211654 21 31 6.4 8.0 0.00 0.00 0.00 23 1006.7
20260504211150 21 320 3.2 4.8 0.00 0.00 0.00 23 1006.7
20260504210648 21 89 1.6 1.6 0.00 0.00 0.00 24 1006.6
20260504210144 22 9 3.2 4.8 0.00 0.00 0.00 22 1006.7
20260504205642 23 239 3.2 3.2 0.00 0.00 0.00 23 1006.9
20260504205139 23 283 4.8 8.0 0.00 0.00 0.00 23 1006.9
20260504204637 22 35 1.6 1.6 0.00 0.00 0.00 23 1007.2
20260504204136 23 319 3.2 3.2 0.00 0.00 0.00 22 1007.2
20260504203634 22 69 0.0 1.6 0.00 0.00 0.00 22 1007.1
20260504203131 21 311 4.8 9.7 0.00 0.00 0.00 22 1007.2
20260504202631 22 279 3.2 8.0 0.00 0.00 0.00 22 1007.6
20260504202129 22 343 4.8 8.0 0.00 0.00 0.00 22 1007.6
20260504201625 21 207 3.2 4.8 0.00 0.00 0.00 24 1007.3
20260504201123 21 147 3.2 4.8 0.00 0.00 0.00 24 1007.3
20260504200620 21 316 3.2 4.8 0.00 0.00 0.00 24 1007.5
20260504200117 22 204 0.0 1.6 0.00 0.00 0.00 24 1007.8
20260504195612 21 197 4.8 4.8 0.00 0.00 0.00 24 1007.7
20260504195109 22 291 4.8 4.8 0.00 0.00 0.00 21 1007.6
20260504194606 22 277 3.2 3.2 0.00 0.00 0.00 22 1007.6
20260504194101 22 277 3.2 4.8 0.00 0.00 0.00 23 1007.5
20260504193558 22 98 3.2 4.8 0.00 0.00 0.00 23 1007.6
20260504193057 22 284 3.2 4.8 0.00 0.00 0.00 22 1007.6
20260504192555 23 346 3.2 3.2 0.00 0.00 0.00 22 1007.3
20260504192052 22 88 0.0 1.6 0.00 0.00 0.00 24 1007.6
20260504191550 23 193 3.2 8.0 0.00 0.00 0.00 22 1007.6
20260504191046 22 71 1.6 3.2 0.00 0.00 0.00 23 1007.8
20260504190542 21 126 0.0 1.6 0.00 0.00 0.00 27 1007.6
20260504190038 18 328 1.6 3.2 0.00 0.00 0.00 29 1007.7
20260504185536 18 192 1.6 3.2 0.00 0.00 0.00 28 1007.5
20260504185032 18 297 3.2 3.2 0.00 0.00 0.00 27 1007.8
20260504184527 18 216 1.6 3.2 0.00 0.00 0.00 26 1007.7
20260504184018 18 102 1.6 1.6 0.00 0.00 0.00 27 1007.8
20260504183515 18 304 8.0 11.3 0.00 0.00 0.00 24 1007.6
20260504183013 18 38 0.0 1.6 0.00 0.00 0.00 24 1007.6
20260504182509 18 312 6.4 9.7 0.00 0.00 0.00 25 1007.9
20260504182007 18 160 1.6 3.2 0.00 0.00 0.00 23 1008.0
20260504181504 19 116 4.8 4.8 0.00 0.00 0.00 22 1007.7
20260504181003 20 124 3.2 4.8 0.00 0.00 0.00 23 1007.6
20260504180501 20 87 0.0 0.0 0.00 0.00 0.00 22 1007.5
20260504175959 20 131 1.6 1.6 0.00 0.00 0.00 21 1007.3
20260504175456 20 72 0.0 0.0 0.00 0.00 0.00 22 1007.6
20260504174953 20 125 0.0 0.0 0.00 0.00 0.00 20 1007.7
20260504174450 20 102 0.0 0.0 0.00 0.00 0.00 22 1007.5
20260504173948 21 86 0.0 0.0 0.00 0.00 0.00 21 1007.2
20260504173443 21 151 3.2 3.2 0.00 0.00 0.00 20 1007.8
20260504172942 21 32 3.2 8.0 0.00 0.00 0.00 19 1007.6
20260504172437 22 14 3.2 3.2 0.00 0.00 0.00 19 1007.8
20260504171934 22 280 4.8 4.8 0.00 0.00 0.00 19 1007.7
20260504171431 22 75 1.6 1.6 0.00 0.00 0.00 20 1007.9
20260504170928 21 58 0.0 1.6 0.00 0.00 0.00 20 1007.8
20260504170425 22 90 0.0 0.0 0.00 0.00 0.00 25 1007.9
20260504160343 20 108 0.0 1.6 0.00 0.00 0.00 24 1008.6
20260504150808 17 136 1.6 1.6 0.00 0.00 0.00 25 1009.1
20260504150305 18 95 0.0 1.6 0.00 0.00 0.00 26 1009.1